Date String (YYYY-MM-DD hh:mm:ss) UTC,Instrument flags,Ambient pressure (hPa),Sample flow (lpm),Bypass flow (lpm),Sample temperature (°C),Ambient temperature (°C),ASC tube jacket temperature (°C),LED temperature (°C),Box temperature (°C),Sample RH (%),Span deviation,Mass concentration (μg/m³),Mass concentration (μg/m³),Mass concentration (μg/m³)
DateTimeUTC,F1_M11,P_M11,Q1_M11,Q2_M11,T1_M11,T2_M11,T3_M11,T4_M11,T5_M11,U1_M11,ZSPAN_M11,X2_M11,X0_M11,X1_M11
2023-01-01 12:00:00,,0817.9,5.00,0.00,22.1,21.0,00.0,31.0,23.9,14.0,0000.0,0002.05,0003.92,0001.61
2023-01-01 12:01:00,,0817.9,5.07,0.00,22.1,21.0,00.0,31.0,24.0,14.0,0000.0,0002.01,0003.84,0001.59
2023-01-01 12:02:00,,0818.0,4.97,0.00,22.1,21.0,00.0,31.0,24.0,14.0,0000.0,0001.98,0003.92,0001.57
2023-01-01 12:03:00,,0818.0,4.94,0.00,22.1,21.0,00.0,31.0,24.0,14.0,0000.0,0001.98,0004.48,0001.56
2023-01-01 12:04:00,,0818.0,5.04,0.00,22.1,21.0,00.0,31.0,24.0,14.0,0000.0,0001.97,0004.71,0001.56
2023-01-01 12:05:00,,0818.0,5.01,0.00,22.1,21.0,00.0,31.0,24.0,14.0,0000.0,0001.95,0004.07,0001.54
2023-01-01 12:06:00,,0818.0,4.97,0.00,22.1,21.0,00.0,31.0,24.0,14.0,0000.0,0001.93,0003.77,0001.53
2023-01-01 12:07:00,,0818.0,4.97,0.00,22.1,21.0,00.0,31.0,23.9,14.0,0000.0,0001.93,0003.77,0001.53
2023-01-01 12:08:00,,0818.0,5.02,0.00,22.1,20.9,00.0,31.0,23.9,14.1,0000.0,0001.99,0003.98,0001.54
2023-01-01 12:09:00,,0818.0,5.02,0.00,22.2,21.0,00.0,31.0,24.0,14.1,0000.0,0002.01,0003.98,0001.54
2023-01-01 12:10:00,,0818.0,5.00,0.00,22.2,21.6,00.0,30.9,24.2,14.1,0000.0,0001.93,0003.74,0001.53
2023-01-01 12:11:00,,0818.0,4.94,0.00,22.3,22.5,00.0,30.9,24.4,14.1,0000.0,0001.93,0003.79,0001.52
2023-01-01 12:12:00,,0818.0,4.99,0.00,22.5,22.7,00.0,31.0,24.5,14.0,0000.0,0001.98,0003.96,0001.52
2023-01-01 12:13:00,,0818.0,5.04,0.00,22.5,22.3,00.0,31.0,24.5,13.9,0000.0,0001.97,0003.84,0001.51
2023-01-01 12:14:00,,0818.0,5.03,0.00,22.5,22.0,00.0,31.1,24.4,13.9,0000.0,0001.98,0003.35,0001.50
2023-01-01 12:15:00,,0818.0,5.05,0.00,22.5,21.8,00.0,31.1,24.3,13.9,0000.0,0001.96,0003.00,0001.50
2023-01-01 12:16:00,,0818.0,4.97,0.00,22.5,21.6,00.0,31.1,24.3,13.9,0000.0,0001.98,0003.06,0001.51
2023-01-01 12:17:00,,0818.0,4.97,0.00,22.5,21.5,00.0,31.1,24.3,13.8,0000.0,0001.97,0003.16,0001.51
2023-01-01 12:18:00,,0818.0,5.05,0.00,22.5,21.4,00.0,31.2,24.3,13.8,0000.0,0001.98,0003.19,0001.51
2023-01-01 12:19:00,,0818.0,5.01,0.00,22.4,21.3,00.0,31.2,24.3,13.9,0000.0,0001.93,0003.25,0001.51
2023-01-01 12:20:00,,0818.0,4.99,0.00,22.4,21.3,00.0,31.2,24.2,13.9,0000.0,0001.90,0003.22,0001.51
2023-01-01 12:21:00,,0818.0,4.99,0.00,22.4,21.3,00.0,31.2,24.2,13.9,0000.0,0001.90,0003.19,0001.52
2023-01-01 12:22:00,,0818.0,4.98,0.00,22.4,21.2,00.0,31.2,24.2,14.0,0000.0,0001.88,0003.08,0001.53
2023-01-01 12:23:00,,0818.0,5.05,0.00,22.4,21.2,00.0,31.2,24.2,14.1,0000.0,0001.83,0002.98,0001.53
2023-01-01 12:24:00,,0818.0,5.01,0.00,22.4,21.2,00.0,31.2,24.2,14.2,0000.0,0001.84,0003.04,0001.53
2023-01-01 12:25:00,,0818.0,5.01,0.00,22.4,21.2,00.0,31.2,24.2,14.4,0000.0,0001.82,0003.01,0001.51
2023-01-01 12:26:00,,0818.0,4.94,0.00,22.4,21.2,00.0,31.2,24.2,14.4,0000.0,0001.81,0003.15,0001.50
2023-01-01 12:27:00,,0818.0,5.03,0.00,22.4,21.2,00.0,31.2,24.2,14.2,0000.0,0001.80,0003.17,0001.49
2023-01-01 12:28:00,,0818.0,5.05,0.00,22.4,21.2,00.0,31.2,24.2,14.3,0000.0,0001.81,0003.12,0001.49
2023-01-01 12:29:00,,0818.0,4.99,0.00,22.4,21.2,00.0,31.2,24.2,14.2,0000.0,0001.84,0003.23,0001.50
2023-01-01 12:30:00,,0818.0,4.98,0.00,22.4,21.1,00.0,31.2,24.2,14.1,0000.0,0001.85,0002.96,0001.51
2023-01-01 12:31:00,,0818.1,4.98,0.00,22.4,21.1,00.0,31.2,24.2,14.1,0000.0,0001.88,0002.99,0001.52
2023-01-01 12:32:00,,0818.1,5.01,0.00,22.4,21.1,00.0,31.2,24.2,14.1,0000.0,0001.94,0003.15,0001.53
2023-01-01 12:33:00,,0818.0,5.02,0.00,22.4,21.1,00.0,31.2,24.2,14.2,0000.0,0001.97,0003.25,0001.54
2023-01-01 12:34:00,,0818.1,4.98,0.00,22.4,21.1,00.0,31.2,24.2,14.2,0000.0,0002.05,0003.39,0001.57
2023-01-01 12:35:00,,0818.0,4.99,0.00,22.4,21.0,00.0,31.2,24.1,14.3,0000.0,0002.06,0003.35,0001.59
2023-01-01 12:36:00,,0818.0,5.00,0.00,22.3,21.0,00.0,31.2,24.1,14.3,0000.0,0002.12,0003.45,0001.62
2023-01-01 12:37:00,,0818.0,5.00,0.00,22.3,21.0,00.0,31.2,24.1,14.4,0000.0,0002.17,0003.41,0001.64
2023-01-01 12:38:00,,0818.0,4.99,0.00,22.3,21.0,00.0,31.2,24.0,14.7,0000.0,0002.25,0003.52,0001.70
2023-01-01 12:39:00,,0818.0,5.01,0.00,22.3,20.9,00.0,31.2,24.0,14.9,0000.0,0002.32,0003.58,0001.75
2023-01-01 12:40:00,,0818.1,4.98,0.00,22.3,20.9,00.0,31.2,24.0,14.9,0000.0,0002.36,0003.55,0001.82
2023-01-01 12:41:00,,0818.2,4.99,0.00,22.3,20.8,00.0,31.2,24.0,15.1,0000.0,0002.48,0003.80,0001.93
2023-01-01 12:42:00,,0818.2,5.02,0.00,22.2,20.8,00.0,31.2,24.0,15.1,0000.0,0002.61,0004.09,0002.06
2023-01-01 12:43:00,,0818.2,5.01,0.00,22.2,20.8,00.0,31.2,24.0,15.1,0000.0,0002.75,0004.23,0002.21
2023-01-01 12:44:00,,0818.2,5.02,0.00,22.2,20.8,00.0,31.1,24.0,15.2,0000.0,0002.92,0004.39,0002.37
2023-01-01 12:45:00,,0818.2,5.00,0.00,22.2,20.8,00.0,31.1,24.0,15.3,0000.0,0003.11,0004.60,0002.60
2023-01-01 12:46:00,,0818.2,4.97,0.00,22.2,20.8,00.0,31.1,24.0,15.3,0000.0,0003.29,0005.00,0002.88
2023-01-01 12:47:00,,0818.2,4.97,0.00,22.2,20.8,00.0,31.1,24.0,15.3,0000.0,0003.42,0005.32,0003.12
2023-01-01 12:48:00,,0818.2,4.97,0.00,22.2,20.8,00.0,31.1,24.0,15.2,0000.0,0003.50,0005.58,0003.21
2023-01-01 12:49:00,,0818.3,5.02,0.00,22.2,20.8,00.0,31.1,24.0,14.9,0000.0,0003.52,0005.68,0003.24
2023-01-01 12:50:00,,0818.4,4.99,0.00,22.2,20.9,00.0,31.1,24.0,14.8,0000.0,0003.54,0006.47,0003.24
2023-01-01 12:51:00,,0818.4,5.04,0.00,22.2,20.9,00.0,31.1,24.0,14.7,0000.0,0003.55,0007.00,0003.24
2023-01-01 12:52:00,,0818.4,4.94,0.00,22.2,20.9,00.0,31.1,24.0,15.1,0000.0,0003.64,0007.64,0003.30
2023-01-01 12:53:00,,0818.4,5.02,0.00,22.2,20.9,00.0,31.1,24.0,15.0,0000.0,0003.65,0007.58,0003.29
2023-01-01 12:54:00,,0818.4,5.04,0.00,22.2,20.9,00.0,31.1,24.0,14.9,0000.0,0003.61,0007.51,0003.25
2023-01-01 12:55:00,,0818.4,4.99,0.00,22.2,21.0,00.0,31.1,24.0,15.0,0000.0,0003.61,0007.62,0003.24
2023-01-01 12:56:00,,0818.4,4.99,0.00,22.2,21.0,00.0,31.1,24.0,15.2,0000.0,0003.62,0007.97,0003.24
2023-01-01 12:57:00,,0818.4,4.96,0.00,22.2,21.0,00.0,31.1,24.0,15.2,0000.0,0003.61,0008.41,0003.19
2023-01-01 12:58:00,,0818.4,5.04,0.00,22.2,21.0,00.0,31.1,24.0,15.1,0000.0,0003.61,0008.62,0003.14
2023-01-01 12:59:00,,0818.4,5.00,0.00,22.2,21.0,00.0,31.1,24.0,15.3,0000.0,0003.71,0009.21,0003.13
